Regional Weather Roundup
Issued by NWS Portland, ME

Current Version | Previous Version | Text Only | Print | Product List | Glossary Off
Versions: 1 2 3 4 5 6 7 8 9 10 11 12 13 14 15 16 17 18 19 20 21 22 23 24 25 26 27 28 29 30 31 32 33 34 35 36 37 38 39 40 41 42 43 44 45 46 47 48 49 50
000 ASUS41 KGYX 282205 RWRGYX WEATHER ROUNDUP FOR MAINE AND NEW HAMPSHIRE NATIONAL WEATHER SERVICE GRAY ME 600 PM EDT THU MAY 28 2020 MEZ002-005-006-010-012-015-018-020-021-024-026-027-029-282300- MAINE CITY SKY/WX TMP DP RH WIND PRES REMARKS PORTLAND MOSUNNY 76 62 62 S14 30.05F SANFORD MOSUNNY 81 67 62 SW10 30.08F BAR HARBOR PTSUNNY 63 60 90 SW14 30.06F WISCASSET MOSUNNY 78 64 61 SW10 30.06S ROCKLAND MOSUNNY 72 64 76 SW15 30.05F FRYEBURG MOSUNNY 82 63 52 S9G21 30.05S LEWISTONAUBURN MOSUNNY 84 66 54 SW15 30.03S AUGUSTA MOSUNNY 79 65 62 S9G18 30.03S WATERVILLE MOSUNNY 81 65 58 VRB6 29.99F BANGOR PTSUNNY 75 63 66 S13 30.00F GREENVILLE N/A 82 65 56 VRB7 29.99F MILLINOCKET SUNNY 85 65 51 S9 29.96F HOULTON SUNNY 85 62 46 S9G21 29.91F PRESQUE ISLE MOSUNNY 88 66 48 SW17G25 29.89F HX 90 FRENCHVILLE LGT RAIN 78 66 66 VRB5 29.88F CARIBOU MOSUNNY 89 64 43 SW15G22 29.87F HX 90 $$ NHZ002-005-008-009-011-012-014-282300- NEW HAMPSHIRE CITY SKY/WX TMP DP RH WIND PRES REMARKS PORTSMOUTH PTSUNNY 80 64 57 SW16G25 30.08S ROCHESTER MOSUNNY 81 64 56 VRB7 30.09S NASHUA PTSUNNY 77 69 76 S7G16 30.12F MANCHESTER PTSUNNY 79 65 62 S12 30.09F CONCORD PTSUNNY 80 64 58 S15 30.09S LACONIA PTSUNNY 81 65 58 S16G24 30.07F PLYMOUTH PTSUNNY 82 62 51 SW3 30.05F BERLIN PTSUNNY 83 60 45 S3 30.03F WHITEFIELD PTSUNNY 81 61 50 SW10G17 30.04F JAFFREY PTSUNNY 74 62 66 S8G17 30.14S KEENE CLOUDY 75 66 73 S10 30.10F LEBANON PTSUNNY 82 65 56 S16G22 30.05F MT WASHINGTON FOG 55 55 100 SW23G32 N/A VSB 1/16 $$ VTZ005-007-008-282300- VERMONT CITY SKY/WX TMP DP RH WIND PRES REMARKS ST JOHNSBURY N/A 81 64 56 MISG 30.00F MONTPELIER PTSUNNY 79 62 56 S10 30.07F BURLINGTON PTSUNNY 82 64 54 S10 29.98F $$ MAZ007-012-024-CTZ003-RIZ002-NYZ038-NYZ072-282300- SOUTHERN NEW ENGLAND AND NY CITY SKY/WX TMP DP RH WIND PRES REMARKS BOSTON CLOUDY 75 63 66 S15 30.14S WORCESTER CLOUDY 73 63 70 SW10 30.16F NANTUCKET CLOUDY 61 58 90 S9 30.21F PROVIDENCE PTSUNNY 74 67 78 S12G23 30.17F HARTFORD CLOUDY 74 66 76 S14 30.11F ALBANY CLOUDY 78 65 63 SE13G23 30.04F NEW YORK CITY CLOUDY 71 64 78 S14G23 30.09F $$ ANZ081-ANZ082-ANZ150-NHZ014-MEZ023>029-282300- COASTAL MARINE OBSERVATIONS STATION/POSITION TIME TEMP WIND PRES WAVE AIR SEA DIR/SP/G HT/PER (UTC) (F) (DEG/KT/KT) (MB) (FT/S) MOUNT DESERT ROC 2100 180/ 23/ 25 1018.4F ISLE OF SHOALS 2100 72 200/ 24/ 25 1018.8F JEFFREYS LEDGE 2108 53 N/A 3/ 4 GEORGES BANK BUO 2150 49 1026.0F 3/ 7 $$ .............KEY.............. WCI - WIND CHILL TC - TEMPERATURE IN CELSIUS VSB - VISIBILITY IN MILES HX - HEAT INDEX FAIR- INDICATES FEW OR NO CLOUDS BELOW 12,000 FT, WITH NO SIGNIFICANT WEATHER AND/OR OBSTRUCTIONS TO VISIBILITY.

USA.gov is the U.S. government's official web portal to all federal, state and local government web resources and services.